Weather History for Williams, AZ

Change the Weather History Date:

Friday, January 17, 2014

  Actual Average (KFLG) Record (KFLG)
Temperature  
Mean Temperature 39 °F 30 °F  
Max Temperature 55 °F 43 °F 62 °F (1971)
Min Temperature 23 °F 17 °F -13 °F (1987)
Degree Days  
Heating Degree Days 26 35  
Month to date heating degree days 601  
Since 1 July heating degree days 3429  
Cooling Degree Days 0 0  
Month to date cooling degree days 0  
Year to date cooling degree days 0  
Moisture  
Dew Point 6 °F    
Average Humidity 29    
Maximum Humidity 59    
Minimum Humidity 12    
Precipitation  
Precipitation 0.00 in 0.07 in 1.83 in (1979)
Month to date precipitation 1.19  
Year to date precipitation 1.19  
Snow  
Snow 0.00 in 0.80 in 14.70 in (1988)
Month to date snowfall 12.4  
Since 1 July snowfall 41.5  
Snow Depth -    
Sea Level Pressure  
Sea Level Pressure 30.37 in    
Wind  
Wind Speed 7 mph (ENE)    
Max Wind Speed 10 mph    
Max Gust Speed -    
Visibility 10 miles    
Events      
T = Trace of Precipitation, MM = Missing Value Source: NWS Daily Summary

Daily Weather History Graph

Daily Weather History Graph

Search for Another Location

Airport:

Trip Planner

Search our weather history database for the weather conditions in past years. The results will help you decide how hot, cold, wet, or windy it might be!

Date:

Astronomy

Jan. 17, 2014 Rise Set
Actual Time 7:36 AM MST 5:41 PM MST
Civil Twilight 7:08 AM MST 6:09 PM MST
Nautical Twilight 6:37 AM MST 6:40 PM MST
Astronomical Twilight 6:07 AM MST 7:10 PM MST
Moon 7:26 PM MST (1/17) 8:11 AM MST (1/17)
Length of Visible Light 11h 00m
Length of Day
10h 05m
Full, 98% of the Moon is Illuminated
Jan 17
Full
Jan 23
Last Quarter
Jan 30
New
Feb 6
First Quarter
Feb 14
Full

Hourly Weather History & Observations

Time (MST) Temp. Windchill Dew Point Humidity Pressure Visibility Wind Dir Wind Speed Gust Speed Precip Events Conditions
12:15 AM 35.6 °F 31.7 °F 1.4 °F 24% 30.39 in 10.0 mi ENE 4.6 mph - N/A   Clear
12:35 AM 35.6 °F 29.2 °F 1.4 °F 24% 30.39 in 10.0 mi NE 8.1 mph - N/A   Clear
12:55 AM 37.4 °F 30.3 °F 3.2 °F 24% 30.38 in 10.0 mi NNE 10.4 mph - N/A   Clear
1:15 AM 39.2 °F 32.5 °F 3.2 °F 22% 30.38 in 10.0 mi NNE 10.4 mph - N/A   Clear
1:35 AM 37.4 °F 30.3 °F 3.2 °F 24% 30.38 in 10.0 mi NE 10.4 mph - N/A   Clear
1:55 AM 39.2 °F 33.6 °F 3.2 °F 22% 30.38 in 10.0 mi NE 8.1 mph - N/A   Clear
2:15 AM 37.4 °F 31.4 °F 3.2 °F 24% 30.38 in 10.0 mi NE 8.1 mph - N/A   Clear
2:35 AM 37.4 °F 30.3 °F 5.0 °F 26% 30.38 in 10.0 mi NE 10.4 mph - N/A   Clear
2:55 AM 35.6 °F 28.6 °F 5.0 °F 28% 30.39 in 10.0 mi NE 9.2 mph - N/A   Clear
3:15 AM 35.6 °F 28.6 °F 5.0 °F 28% 30.39 in 10.0 mi NE 9.2 mph - N/A   Clear
3:35 AM 32.0 °F 25.6 °F 5.0 °F 32% 30.38 in 10.0 mi NE 6.9 mph - N/A   Clear
3:55 AM 35.6 °F 29.2 °F 6.8 °F 30% 30.37 in 10.0 mi ENE 8.1 mph - N/A   Clear
4:15 AM 32.0 °F 26.4 °F 6.8 °F 35% 30.38 in 10.0 mi ENE 5.8 mph - N/A   Clear
4:35 AM 32.0 °F - 6.8 °F 35% 30.38 in 10.0 mi Calm Calm - N/A   Clear
4:55 AM 35.6 °F - 5.0 °F 28% 30.38 in 10.0 mi Calm Calm - N/A   Clear
5:15 AM 32.0 °F 25.6 °F 6.8 °F 35% 30.38 in 10.0 mi NE 6.9 mph - N/A   Clear
5:35 AM 32.0 °F 28.7 °F 6.8 °F 35% 30.38 in 10.0 mi NE 3.5 mph - N/A   Clear
5:55 AM 32.0 °F - 6.8 °F 35% 30.38 in 10.0 mi Calm Calm - N/A   Clear
6:15 AM 33.8 °F 30.8 °F 5.0 °F 30% 30.38 in 10.0 mi NNW 3.5 mph - N/A   Clear
6:35 AM 33.8 °F 30.8 °F 5.0 °F 30% 30.38 in 10.0 mi NNE 3.5 mph - N/A   Clear
6:55 AM 28.4 °F - 6.8 °F 40% 30.39 in 10.0 mi Calm Calm - N/A   Clear
7:15 AM 24.8 °F 17.9 °F 6.8 °F 46% 30.39 in 10.0 mi SE 5.8 mph - N/A   Clear
7:35 AM 23.0 °F 17.0 °F 8.6 °F 54% 30.40 in 10.0 mi SE 4.6 mph - N/A   Clear
7:55 AM 23.0 °F 14.7 °F 8.6 °F 54% 30.41 in 10.0 mi SE 6.9 mph - N/A   Clear
8:15 AM 24.8 °F 17.9 °F 8.6 °F 50% 30.41 in 10.0 mi SSE 5.8 mph - N/A   Clear
8:35 AM 24.8 °F 17.9 °F 10.4 °F 54% 30.41 in 10.0 mi South 5.8 mph - N/A   Clear
8:55 AM 32.0 °F - 12.2 °F 44% 30.41 in 10.0 mi Calm Calm - N/A   Clear
9:15 AM 39.2 °F - 6.8 °F 26% 30.41 in 10.0 mi Calm Calm - N/A   Clear
9:35 AM 41.0 °F - 6.8 °F 24% 30.42 in 10.0 mi Calm Calm - N/A   Clear
9:55 AM 42.8 °F 41.1 °F 6.8 °F 23% 30.43 in 10.0 mi East 3.5 mph - N/A   Clear
10:15 AM 46.4 °F 44.3 °F 6.8 °F 20% 30.43 in 10.0 mi East 4.6 mph - N/A   Clear
10:35 AM 48.2 °F - 5.0 °F 17% 30.43 in 10.0 mi East 5.8 mph - N/A   Clear
10:55 AM 50.0 °F - 1.4 °F 14% 30.43 in 10.0 mi NE 8.1 mph - N/A   Clear
11:15 AM 51.8 °F - 1.4 °F 13% 30.42 in 10.0 mi NNE 10.4 mph - N/A   Clear
11:35 AM 51.8 °F - 1.4 °F 13% 30.41 in 10.0 mi ENE 9.2 mph - N/A   Clear
11:55 AM 53.6 °F - 3.2 °F 13% 30.40 in 10.0 mi North 9.2 mph - N/A   Clear
12:15 PM 53.6 °F - 3.2 °F 13% 30.38 in 10.0 mi NNE 8.1 mph - N/A   Clear
12:35 PM 53.6 °F - 3.2 °F 13% 30.37 in 10.0 mi North 9.2 mph - N/A   Clear
12:55 PM 55.4 °F - 3.2 °F 12% 30.36 in 10.0 mi NNE 9.2 mph - N/A   Clear
1:15 PM 55.4 °F - 5.0 °F 13% 30.36 in 10.0 mi NNW 6.9 mph - N/A   Clear
1:35 PM 55.4 °F - 5.0 °F 13% 30.35 in 10.0 mi North 8.1 mph - N/A   Clear
1:55 PM 55.4 °F - 5.0 °F 13% 30.34 in 10.0 mi NNW 8.1 mph - N/A   Clear
2:15 PM 55.4 °F - 3.2 °F 12% 30.33 in 10.0 mi North 10.4 mph - N/A   Clear
2:35 PM 55.4 °F - 3.2 °F 12% 30.33 in 10.0 mi NNE 6.9 mph - N/A   Clear
2:55 PM 55.4 °F - 3.2 °F 12% 30.33 in 10.0 mi North 8.1 mph - N/A   Clear
3:15 PM 55.4 °F - 5.0 °F 13% 30.33 in 10.0 mi North 9.2 mph - N/A   Clear
3:35 PM 55.4 °F - 5.0 °F 13% 30.33 in 10.0 mi North 9.2 mph - N/A   Clear
3:55 PM 55.4 °F - 5.0 °F 13% 30.33 in 10.0 mi North 9.2 mph - N/A   Clear
4:15 PM 55.4 °F - 5.0 °F 13% 30.33 in 10.0 mi North 5.8 mph - N/A   Clear
4:35 PM 53.6 °F - 5.0 °F 14% 30.33 in 10.0 mi NE 4.6 mph - N/A   Clear
4:55 PM 53.6 °F - 5.0 °F 14% 30.33 in 10.0 mi NNE 4.6 mph - N/A   Clear
5:15 PM 51.8 °F - 5.0 °F 15% 30.33 in 10.0 mi North 4.6 mph - N/A   Clear
5:35 PM 48.2 °F - 5.0 °F 17% 30.33 in 10.0 mi NNE 4.6 mph - N/A   Clear
5:55 PM 48.2 °F - 6.8 °F 19% 30.33 in 10.0 mi NE 4.6 mph - N/A   Clear
6:15 PM 48.2 °F - 6.8 °F 19% 30.33 in 10.0 mi NNE 3.5 mph - N/A   Clear
6:35 PM 46.4 °F 44.3 °F 6.8 °F 20% 30.33 in 10.0 mi NNE 4.6 mph - N/A   Clear
6:55 PM 39.2 °F - 6.8 °F 26% 30.33 in 10.0 mi Calm Calm - N/A   Clear
7:15 PM 35.6 °F - 8.6 °F 33% 30.33 in 10.0 mi Calm Calm - N/A   Clear
7:35 PM 32.0 °F 24.8 °F 10.4 °F 41% 30.33 in 10.0 mi SSE 8.1 mph - N/A   Clear
7:55 PM 32.0 °F 24.8 °F 10.4 °F 41% 30.33 in 10.0 mi SSE 8.1 mph - N/A   Clear
8:15 PM 30.2 °F 23.4 °F 10.4 °F 44% 30.33 in 10.0 mi SSE 6.9 mph - N/A   Clear
8:35 PM 30.2 °F 21.9 °F 10.4 °F 44% 30.33 in 10.0 mi SSE 9.2 mph - N/A   Clear
8:55 PM 30.2 °F 21.3 °F 10.4 °F 44% 30.33 in 10.0 mi SSE 10.4 mph - N/A   Clear
9:15 PM 30.2 °F 23.4 °F 10.4 °F 44% 30.33 in 10.0 mi South 6.9 mph - N/A   Clear
9:35 PM 28.4 °F 19.7 °F 10.4 °F 47% 30.33 in 10.0 mi SSE 9.2 mph - N/A   Clear
9:55 PM 26.6 °F 18.2 °F 10.4 °F 51% 30.34 in 10.0 mi SSE 8.1 mph - N/A   Clear
10:15 PM 26.6 °F 19.1 °F 10.4 °F 51% 30.34 in 10.0 mi SSE 6.9 mph - N/A   Clear
10:35 PM 26.6 °F 19.1 °F 12.2 °F 55% 30.34 in 10.0 mi SE 6.9 mph - N/A   Clear
10:55 PM 26.6 °F 17.5 °F 12.2 °F 55% 30.34 in 10.0 mi SSE 9.2 mph - N/A   Clear
11:15 PM 26.6 °F 18.2 °F 12.2 °F 55% 30.34 in 10.0 mi SSE 8.1 mph - N/A   Clear
11:35 PM 26.6 °F 17.5 °F 12.2 °F 55% 30.34 in 10.0 mi SSE 9.2 mph - N/A   Clear
11:55 PM 24.8 °F 15.3 °F 12.2 °F 59% 30.34 in 10.0 mi SSE 9.2 mph - N/A   Clear